Flag for Spain Weather past 2 weeks in Madrid, Spain

Now
86 °F

Sunny.


Feels Like: 83 °F
Forecast: 71 / 93 °F
Wind: 12 mph from West

Location: Madrid / Cuatro Vientos

Current Time: Jul 1, 2015 at 10:01:21 PM

Latest Report: Jul 1, 2015 at 9:30 PM


Visibility: 10 mi

Pressure: 29.95 "Hg

Humidity: 18%

Dew point: 37 °F

Location of MadridLocation

Historic Weather in Madrid — Graph

°F

Madrid temperature yesterday

Maximum temperature yesterday: 102 °F (at 5:00 PM)
Minimum temperature yesterday: 75 °F (at 7:00 AM)
Average temperature yesterday: 92 °F

Past Weeks' High & Low Weather Summary

 TemperatureHumidityPressure
High104 °F (Jun 29, 4:30 PM)77% (Jun 17, 7:00 AM)30.27 "Hg (Jun 17, 7:00 AM)
Low57 °F (Jun 17, 7:00 AM)9% (Jun 20, 4:30 PM)29.92 "Hg (Jun 23, 6:30 PM)
Average85 °F25%30.11 "Hg
* Reported Jun 16 9:00 PM — Jul 1 9:00 PM, Madrid, Weather by CustomWeather, © 2015

Note: Actual official high and low records may vary slightly from our data, if they occured in-between our weather recording intervals... More about our weather records

Advertising

Madrid weather history for previous 24 hours

 ConditionsComfort  
Time TempWeatherWind HumidityBarometerVisibility
9:00 PM
Wed, Jul 1
90 °FPassing clouds.13 mph13%29.95 "HgN/A
8:30 PM93 °FPassing clouds.13 mph11%29.92 "HgN/A
8:00 PM95 °FPassing clouds.9 mph10%29.92 "HgN/A
7:30 PM97 °FPassing clouds.7 mph11%29.92 "HgN/A
7:00 PM97 °FPassing clouds.12 mph10%29.92 "HgN/A
6:30 PM97 °FPassing clouds.10 mph10%29.95 "HgN/A
6:00 PM99 °FPassing clouds.7 mph9%29.95 "HgN/A
5:30 PM97 °FPassing clouds.8 mph11%29.95 "HgN/A
5:00 PM99 °FPassing clouds.8 mph11%29.98 "HgN/A
4:30 PM97 °FPassing clouds.8 mph13%29.98 "HgN/A
4:00 PM97 °FPassing clouds.13 mph13%29.98 "HgN/A
3:30 PM97 °FPassing clouds.9 mph13%29.98 "HgN/A
3:00 PM95 °FPassing clouds.14 mph14%30.01 "HgN/A
2:30 PM93 °FPassing clouds.13 mph16%30.01 "HgN/A
2:00 PM93 °FPassing clouds.10 mph15%30.04 "HgN/A
1:30 PM93 °FPassing clouds.12 mph16%30.04 "HgN/A
1:00 PM91 °FPassing clouds.9 mph20%30.04 "HgN/A
12:00 PM88 °FPassing clouds.7 mph22%30.04 "HgN/A
11:30 AM88 °FPassing clouds.5 mph22%30.04 "HgN/A
11:00 AM86 °FSunny.1 mph24%30.07 "Hg10 mi
10:30 AM86 °FSunny.No wind24%30.07 "Hg10 mi
10:00 AM84 °FSunny.1 mph23%30.07 "Hg10 mi
9:30 AM81 °FPassing clouds.3 mph26%30.07 "HgN/A
9:00 AM79 °FPassing clouds.5 mph26%30.04 "HgN/A
8:30 AM77 °FPassing clouds.3 mph28%30.04 "HgN/A
8:00 AM77 °FSunny.2 mph30%30.04 "Hg10 mi
7:30 AM72 °FClear.5 mph33%30.04 "Hg10 mi
7:00 AM72 °FClear.3 mph33%30.04 "Hg10 mi
11:30 PM
Tue, Jun 30
86 °FClear.15 mph20%29.98 "Hg10 mi
11:00 PM88 °FClear.12 mph16%29.98 "Hg10 mi
10:30 PM90 °FPassing clouds.12 mph15%29.98 "HgN/A
10:00 PM91 °FPassing clouds.12 mph11%29.95 "HgN/A
Weather by CustomWeather, © 2015

See weather overviewHow to use our weather pages